Regional Weather Roundup
Issued by NWS

Home | Current Version | Previous Version | Graphics & Text | Print | Product List | Glossary Off
Versions: 1 2 3 4 5 6 7 8 9 10 11 12 13 14 15 16 17 18 19 20 21 22 23 24 25 26 27 28 29 30 31 32 33 34 35 36 37 38 39 40 41 42 43 44 45 46 47 48 49 50

000
ASUS45 KBOU 270807
RWRCO

WEATHER ROUNDUP FOR COLORADO
NATIONAL WEATHER SERVICE DENVER/BOULDER CO
100 AM MST SAT DEC 27 2014

NOTE: "FAIR" INDICATES FEW OR NO CLOUDS BELOW 12000 FEET WITH NO
SIGNIFICANT WEATHER AND/OR OBSTRUCTIONS TO VISIBILITY.

COZ001>005-013-030-031-270900-
...NORTHWEST COLORADO...

CITY           SKY/WX    TMP DP  RH WIND       PRES   REMARKS
CRAIG          LGT SNOW   7   4  87 W5        30.11R FOG     WCI  -2
HAYDEN         CLOUDY     9   7  92 E3        30.07S
MEEKER         CLOUDY     8   3  80 CALM      30.10R
MOUNT WERNER   NOT AVBL
STEAMBOAT SPGS CLOUDY     9   7  89 SW3       30.06R
WALDEN         MOCLDY     0  -4  85 CALM      29.97R
$$

COZ006>008-011-270900-
...WEST CENTRAL VALLEYS...

CITY           SKY/WX    TMP DP  RH WIND       PRES   REMARKS
GRAND JUNCTION CLEAR     15   7  70 NW3       30.14R
MONTROSE       CLOUDY    19  16  88 CALM      30.12R
EAGLE          PTCLDY    10   7  85 SE3       30.08R
RIFLE          CLOUDY    10   4  76 S3        30.14R
DELTA          CLOUDY    23  15  71 CALM      30.12R
NUCLA          NOT AVBL
$$

COZ017>023-064>068-270900-
...SOUTHWEST COLORADO...

CITY           SKY/WX    TMP DP  RH WIND       PRES   REMARKS
DURANGO        MOCLDY     5   1  83 N7        30.02R WCI  -7
CORTEZ         CLEAR     10   6  84 E6        30.06S WCI   0
PAGOSA SPRINGS LGT SNOW  17  16  96 CALM      29.98S
TELLURIDE      LGT SNOW N/A N/A N/A CALM      29.97R
WOLF CREEK PAS CLOUDY    -2  -4  92 MISG      29.83S
$$

COZ009-010-012-014-032>034-037-058>063-270900-
...CENTRAL COLORADO...

CITY           SKY/WX    TMP DP  RH WIND       PRES   REMARKS
ASPEN          LGT SNOW   5   1  83 CALM      29.98S FOG
BUENA VISTA    FLURRIES   1  -4  80 W6        29.98S WCI -10
COPPER MTN     MOCLDY     0  -8  71 W10       29.79S WCI -17
BERTHOUD PASS  CLOUDY    -8 -13  77 MISG      29.75S
COTTONWOOD PAS FLURRIES   7   1  78 CALM      29.88S
GUNNISON       CLOUDY     1   1 100 MISG      30.01S
KREMMLING      LGT SNOW   9   3  78 CALM      30.02S
LEADVILLE      PTCLDY    -5  -9  83 NE10      29.86S WCI -23
MONARCH PASS   CLOUDY     0  -6  78 MISG      29.89S
SALIDA         CLOUDY     9   5  82 SW5       30.09R WCI   1
SUNLIGHT       CLOUDY   N/A N/A N/A W3        29.89S FOG
WILKERSON PASS MOCLDY   N/A N/A N/A W7        29.83S
$$

COZ069>075-270900-
...SAN LUIS VALLEY/SANGRE DE CRISTO MOUNTAINS...

CITY           SKY/WX    TMP DP  RH WIND       PRES   REMARKS
ALAMOSA        CLOUDY     9   3  77 SE7       29.97S WCI  -2
LA VETA PASS   NOT AVBL
SAGUACHE       PTCLDY     0  -6  78 NW10      29.98R WCI -17
$$

COZ035-036-038>040-270900-
...NORTHERN COLORADO FRONT RANGE...

CITY           SKY/WX    TMP DP  RH WIND       PRES   REMARKS
DENVER INTL AP PTCLDY     8   5  87 SW8       30.08S WCI  -4
DMNS CITY PARK   N/A     11   9  91 S2        30.10S
AURORA         CLEAR      4   2  88 S5        30.08S WCI  -5
FRONT RANGE AP PTCLDY    12  10  92 MISG      30.08S
ERIE MUNI ARPT   N/A      3   0  88 S3        30.10S
BOULDER MUN AP PTCLDY    10   9  92 CALM      30.09S
CENTENNIAL     PTCLDY     6   3  87 S7        30.05F WCI  -6
BROOMFIELD     PTCLDY     9   7  92 SW3       30.07S
FORT COLLINS   PTCLDY    12   9  85 S6        30.10S WCI   3
LONGMONT       LGT SNOW   6   3  86 W3        30.13R VSB 3/4
$$

COZ041-046-047-076>085-087-088-270900-
...PIKES PEAK/PALMER DIVIDE AND SOUTHERN FOOTHILLS...

CITY           SKY/WX    TMP DP  RH WIND       PRES   REMARKS
COLO. SPRINGS  LGT SNOW  14  12  92 SW6       30.05F FOG     WCI   5
A. F. ACADEMY  CLOUDY    10   5  80 N8        30.02F WCI  -3
ELLICOTT       NOT AVBL
FALCON         LGT SNOW   9   8  92 W6        30.01F WCI   0
FORT CARSON    CLOUDY    14  11  88 SE5       30.05F WCI   7
LIMON          PTCLDY     2  -1  88 NW13      30.07F WCI -15
MONUMENT HILL  PTCLDY     3   1  92 SW5       29.99S WCI  -6
TRINIDAD       CLOUDY    14  11  87 CALM      30.05S
$$

COZ042>045-048>051-090-091-270900-
...NORTHEAST COLORADO...

CITY           SKY/WX    TMP DP  RH WIND       PRES   REMARKS
GREELEY ARPT   PTCLDY    10   3  72 CALM      30.11S
AKRON          MOCLDY     9   7  92 W12       30.09S WCI  -6
BURLINGTON     CLEAR      5   1  83 W9        30.11F WCI  -9
WRAY           CLEAR      8   6  90 W8        30.15F WCI  -5
STERLING       PTCLDY    10   9  92 W7        30.13S WCI   0
HOLYOKE        PTCLDY    14  10  85 W9        30.14S WCI   2
FORT MORGAN    PTCLDY     7   4  88 W6        30.12S WCI  -3
$$

COZ086-089-092>099-270900-
...SOUTHEAST COLORADO...

CITY           SKY/WX    TMP DP  RH WIND       PRES   REMARKS
PUEBLO         CLOUDY    18  14  84 CALM      30.12F
LA JUNTA       PTCLDY     9   5  84 NW5       30.13F WCI   1
LAMAR          CLEAR     10   6  84 W8        30.13F WCI  -2
SPRINGFIELD      N/A     10   6  84 W3        30.12R
$$


USA.gov is the U.S. government's official web portal to all federal, state and local government web resources and services.